Location: Bermeries
(50.2863°N, 3.7551°E)
Time: 02:46:48
(UTC+00:00)

ADEOS II - Pass Details

Date: 23 May 2024
Orbit: 796 x 798 km, 98.7° (Epoch: 21 June)

Event Time Altitude Azimuth Distance (km) Brightness Sun altitude
Rises 01:12:26 0° 23° (NNE) 3,313 7.2 -16.3°
Reaches altitude 10° 01:15:07 10° 35° (NE) 2,378 5.8 -16.1°
Maximum altitude 01:19:35 27° 93° (E) 1,479 3.7 -15.8°
Drops below altitude 10° 01:24:00 10° 152° (SSE) 2,362 4.2 -15.6°
Enters shadow 01:24:17 - 153° (SSE) 2,459 4.3 -15.5°
